User: anonymous   Login
Location: Unspecified
(0.0000°N, 0.0000°E)
Time: 09:59:59
(UTC+00:00)
Language:

STARLINK-30077 - Orbit

View from above orbital plane
View from above orbital plane
View from above satellite
View from above satellite

Ground track
Ground track

The orbit is defined by the following mean orbital elements,

1 57460U          26145.33770935 +.00000000 +00000-0 +25406-4 0 00001
2 57460  43.0019 262.8822 0001256 282.8676  77.2035 15.27575687    01
Epoch (UTC): 25 May 2026 08:06:18
Eccentricity: 0.0001256
inclination: 43.0019°
perigee height: 482 km
apogee height: 484 km
right ascension of ascending node: 262.8822°
argument of perigee: 282.8676°
revolutions per day: 15.27575687
mean anomaly at epoch: 77.2035°

The dashed part of the orbit path shows where the satellite is in the earth's shadow,  

DLR